Regional Weather Roundup
Issued by NWS

Home | Current Version | Previous Version | Graphics & Text | Print | Product List | Glossary Off
Versions: 1 2 3 4 5 6 7 8 9 10 11 12 13 14 15 16 17 18 19 20 21 22 23 24 25 26 27 28 29 30 31 32 33 34 35 36 37 38 39 40 41 42 43 44 45 46 47 48 49 50

000
ASUS43 KTOP 261808
RWRKS

WEATHER ROUNDUP FOR KANSAS
NATIONAL WEATHER SERVICE GOODLAND KS
100 PM CDT THU APR 26 2018

NOTE:  "FAIR" INDICATES FEW OR NO CLOUDS BELOW 12,000 FEET WITH NO
SIGNIFICANT WEATHER AND/OR OBSTRUCTIONS TO VISIBILITY.

KSZ001>006-013>018-027>032-041>047-261900-
NORTHWEST KANSAS

CITY           SKY/WX    TMP DP  RH WIND       PRES   REMARKS
GOODLAND       SUNNY     60  33  36 N31G46    30.13R
6HR MIN TEMP:  41; 6HR MAX TEMP:  60; 6HR PCP: TRACE;

HAYS           SUNNY     66  37  34 N8        30.03R
HILL CITY      MOSUNNY   64  42  44 NE20G31   30.06R
6HR MIN TEMP:  30; 6HR MAX TEMP:  64;

RUSSELL        SUNNY     66  39  37 MISG      30.01S
6HR MIN TEMP:  34; 6HR MAX TEMP:  66;

$$

KSZ061>065-074>080-084>089-261900-
SOUTHWEST KANSAS

CITY           SKY/WX    TMP DP  RH WIND       PRES   REMARKS
DODGE CITY     CLOUDY    65  39  38 VRB3      30.02R
6HR MIN TEMP:  34; 6HR MAX TEMP:  65;

ELKHART        SUNNY     67  36  31 N37G51    30.05R
GARDEN CITY    MOSUNNY   63  37  38 N30G49    30.03R
6HR MIN TEMP:  33; 6HR MAX TEMP:  64;

GREAT BEND     MOSUNNY   63  41  44 N7        30.03R
LIBERAL        PTSUNNY   62  41  46 N21G31    30.02R
PRATT          MOSUNNY   62  39  44 CALM      30.03R
6HR MIN TEMP:  33; 6HR MAX TEMP:  62;

$$

KSZ066>073-081>083-090>101-261900-
SOUTHEAST KANSAS

CITY           SKY/WX    TMP DP  RH WIND       PRES   REMARKS
CHANUTE        PTSUNNY   61  47  59 N7        30.03S
6HR MIN TEMP:  48; 6HR MAX TEMP:  62;

COFFEYVILLE    PTSUNNY   59  47  64 SW5       30.02F
6HR MIN TEMP:  50; 6HR MAX TEMP:  59;

HUTCHINSON     PTSUNNY   62  42  47 S7        30.01F
6HR MIN TEMP:  30; 6HR MAX TEMP:  62;

MEDICINE LODGE   N/A     61  42  49 VRB5      30.01R
NEWTON         MOSUNNY   59  44  57 SE5       30.01F
PARSONS        CLOUDY    59  48  67 CALM      30.03F
6HR MIN TEMP:  49; 6HR MAX TEMP:  60;

WICHITA INTL   MOSUNNY   63  43  48 VRB3      30.01F
6HR MIN TEMP:  33; 6HR MAX TEMP:  64;

WICHITA JABRA  SUNNY     63  39  41 NE7       30.01F
6HR MIN TEMP:  37; 6HR MAX TEMP:  64;

WINFIELD       SUNNY     60  45  57 CALM      30.03F
6HR MIN TEMP:  36; 6HR MAX TEMP:  60;

$$

KSZ007>012-019>026-033>040-048>060-102>105-261900-
NORTHEAST KANSAS

CITY           SKY/WX    TMP DP  RH WIND       PRES   REMARKS
CONCORDIA      MOSUNNY   62  44  51 W13       30.02S
6HR MIN TEMP:  34; 6HR MAX TEMP:  62;

EMPORIA        CLOUDY    60  45  57 CALM      30.01F
6HR MIN TEMP:  38; 6HR MAX TEMP:  60;

LAWRENCE       PTSUNNY   62  47  57 MISG      30.01F
6HR MIN TEMP:  34; 6HR MAX TEMP:  62;

MANHATTAN      CLOUDY    62  42  47 W9        30.02F
6HR MIN TEMP:  34; 6HR MAX TEMP:  63;

MARYSVILLE     CLOUDY    61  43  51 SW8       30.01F
OLATHE IND     MOSUNNY   60  47  61 W7        30.02F
6HR MIN TEMP:  40; 6HR MAX TEMP:  61;

OLATHE EXE     CLOUDY    59  45  59 VRB5      30.00F
6HR MIN TEMP:  39; 6HR MAX TEMP:  59;

SALINA         PTSUNNY   63  45  51 E3        30.02F
6HR MIN TEMP:  35; 6HR MAX TEMP:  64;

TOPEKA BILLARD CLOUDY    62  45  53 NW9       30.00F
6HR MIN TEMP:  39; 6HR MAX TEMP:  63;

TOPEKA FORBES  MOSUNNY   62  46  55 SW7       30.00F
6HR MIN TEMP:  36; 6HR MAX TEMP:  63;

$$



USA.gov is the U.S. government's official web portal to all federal, state and local government web resources and services.